• în Republica Moldova
  • Lista ţărilor
  • Pe 7 zile
  • Temperatura apei
  • Hartă satelitară
  • Meteo pe hartă
  • Widget-uri
  • user-avatar
    Intrare

    Meteo pe oră la Kalgoorlie

    Astăzi, 29 Mai, Luni

    Timp Temperatura Precipitaţii Vânt Presiune Umiditate
    00:00 +10°C° 0 mm 3 m/s 736 mmHg 74%
    01:00 +9°C° 0 mm 3 m/s 736 mmHg 75%
    02:00 +9°C° 0 mm 3 m/s 736 mmHg 77%
    03:00 +9°C° 0 mm 3 m/s 736 mmHg 78%
    04:00 +8°C° 0 mm 3 m/s 736 mmHg 80%
    05:00 +8°C° 0 mm 3 m/s 736 mmHg 81%
    06:00 +8°C° 0 mm 3 m/s 736 mmHg 78%
    07:00 +9°C° 0 mm 3 m/s 736 mmHg 76%
    08:00 +9°C° 0 mm 3 m/s 736 mmHg 73%
    09:00 +11°C° 0 mm 3 m/s 736 mmHg 66%
    10:00 +13°C° 0 mm 3 m/s 736 mmHg 58%
    11:00 +16°C° 0 mm 3 m/s 737 mmHg 51%
    12:00 +17°C° 0 mm 3 m/s 736 mmHg 48%
    13:00 +17°C° 0 mm 2 m/s 736 mmHg 45%
    14:00 +18°C° 0 mm 2 m/s 736 mmHg 43%
    15:00 +17°C° 0 mm 2 m/s 736 mmHg 46%
    16:00 +16°C° 0 mm 2 m/s 736 mmHg 49%
    17:00 +15°C° 0 mm 2 m/s 736 mmHg 52%
    18:00 +14°C° 0 mm 2 m/s 736 mmHg 54%
    19:00 +13°C° 0 mm 3 m/s 736 mmHg 56%
    20:00 +12°C° 0 mm 3 m/s 737 mmHg 59%
    21:00 +11°C° 0 mm 3 m/s 737 mmHg 61%
    22:00 +11°C° 0 mm 3 m/s 737 mmHg 62%
    23:00 +10°C° 0 mm 4 m/s 737 mmHg 64%

    Mâine, 30 Mai, Marţi

    Timp Temperatura Precipitaţii Vânt Presiune Umiditate
    00:00 +10°C° 0 mm 4 m/s 737 mmHg 66%
    01:00 +10°C° 0 mm 4 m/s 737 mmHg 67%
    02:00 +8°C° 0 mm 4 m/s 737 mmHg 69%
    03:00 +8°C° 0 mm 4 m/s 737 mmHg 71%
    04:00 +8°C° 0 mm 4 m/s 737 mmHg 72%
    05:00 +7°C° 0 mm 4 m/s 737 mmHg 74%
    06:00 +8°C° 0 mm 4 m/s 737 mmHg 72%
    07:00 +8°C° 0 mm 4 m/s 738 mmHg 70%
    08:00 +9°C° 0 mm 5 m/s 738 mmHg 68%
    09:00 +12°C° 0 mm 5 m/s 738 mmHg 61%
    10:00 +14°C° 0 mm 6 m/s 737 mmHg 54%
    11:00 +16°C° 0 mm 6 m/s 737 mmHg 46%
    12:00 +17°C° 0 mm 6 m/s 737 mmHg 43%
    13:00 +19°C° 0 mm 5 m/s 736 mmHg 39%
    14:00 +19°C° 0 mm 5 m/s 736 mmHg 35%
    15:00 +18°C° 0 mm 4 m/s 736 mmHg 38%
    16:00 +17°C° 0 mm 4 m/s 736 mmHg 41%
    17:00 +16°C° 0 mm 3 m/s 736 mmHg 44%
    18:00 +14°C° 0 mm 3 m/s 736 mmHg 47%
    19:00 +13°C° 0 mm 3 m/s 736 mmHg 49%
    20:00 +13°C° 0 mm 4 m/s 737 mmHg 52%
    21:00 +12°C° 0 mm 4 m/s 737 mmHg 54%
    22:00 +12°C° 0 mm 4 m/s 737 mmHg 55%
    23:00 +11°C° 0 mm 4 m/s 737 mmHg 57%

    Poimâine, 31 Mai, Miercuri

    Timp Temperatura Precipitaţii Vânt Presiune Umiditate
    00:00 +11°C° 0 mm 4 m/s 737 mmHg 58%
    01:00 +11°C° 0 mm 4 m/s 736 mmHg 59%
    02:00 +10°C° 0 mm 4 m/s 736 mmHg 60%
    03:00 +10°C° 0 mm 4 m/s 736 mmHg 61%
    04:00 +10°C° 0 mm 4 m/s 736 mmHg 62%
    05:00 +10°C° 0 mm 4 m/s 735 mmHg 63%
    06:00 +10°C° 0 mm 4 m/s 736 mmHg 61%
    07:00 +11°C° 0 mm 4 m/s 736 mmHg 60%
    08:00 +11°C° 0 mm 4 m/s 736 mmHg 59%
    09:00 +14°C° 0 mm 4 m/s 736 mmHg 53%
    10:00 +16°C° 0 mm 5 m/s 736 mmHg 46%
    11:00 +20°C° 0 mm 5 m/s 736 mmHg 40%
    12:00 +21°C° 0 mm 5 m/s 735 mmHg 38%
    13:00 +22°C° 0 mm 5 m/s 735 mmHg 35%
    14:00 +23°C° 0 mm 5 m/s 735 mmHg 33%
    15:00 +22°C° 0 mm 4 m/s 735 mmHg 36%
    16:00 +20°C° 0 mm 4 m/s 735 mmHg 39%
    17:00 +19°C° 0 mm 3 m/s 735 mmHg 43%
    18:00 +18°C° 0 mm 3 m/s 735 mmHg 45%
    19:00 +18°C° 0 mm 4 m/s 735 mmHg 47%
    20:00 +17°C° 0 mm 4 m/s 735 mmHg 48%
    21:00 +17°C° 0 mm 4 m/s 735 mmHg 50%
    22:00 +15°C° 0 mm 4 m/s 735 mmHg 51%
    23:00 +15°C° 0 mm 4 m/s 735 mmHg 53%

    1 Iunie, Joi

    Timp Temperatura Precipitaţii Vânt Presiune Umiditate
    00:00 +15°C° 0 mm 4 m/s 735 mmHg 53%
    01:00 +14°C° 0 mm 4 m/s 735 mmHg 54%
    02:00 +14°C° 0 mm 4 m/s 734 mmHg 55%
    03:00 +14°C° 0 mm 4 m/s 734 mmHg 54%
    04:00 +14°C° 0 mm 4 m/s 734 mmHg 54%
    05:00 +14°C° 0 mm 4 m/s 734 mmHg 54%
    06:00 +15°C° 0 mm 5 m/s 734 mmHg 51%
    07:00 +16°C° 0 mm 5 m/s 735 mmHg 48%
    08:00 +16°C° 0 mm 6 m/s 735 mmHg 46%
    09:00 +20°C° 0 mm 7 m/s 735 mmHg 40%
    10:00 +22°C° 0 mm 8 m/s 735 mmHg 33%
    11:00 +26°C° 0 mm 9 m/s 736 mmHg 27%
    12:00 +27°C° 0 mm 8 m/s 735 mmHg 26%
    13:00 +28°C° 0 mm 8 m/s 735 mmHg 24%
    14:00 +28°C° 0 mm 7 m/s 734 mmHg 23%
    15:00 +27°C° 0 mm 6 m/s 734 mmHg 26%
    16:00 +25°C° 0 mm 5 m/s 735 mmHg 29%
    17:00 +22°C° 0 mm 3 m/s 735 mmHg 32%
    18:00 +21°C° 0 mm 3 m/s 735 mmHg 34%
    19:00 +20°C° 0 mm 3 m/s 736 mmHg 37%
    20:00 +19°C° 0 mm 2 m/s 736 mmHg 39%
    21:00 +19°C° 0 mm 2 m/s 736 mmHg 40%
    22:00 +18°C° 0 mm 2 m/s 736 mmHg 41%
    23:00 +19°C° 0 mm 1 m/s 736 mmHg 42%

    2 Iunie, Vineri

    Timp Temperatura Precipitaţii Vânt Presiune Umiditate
    00:00 +18°C° 0 mm 1 m/s 736 mmHg 42%
    01:00 +18°C° 0 mm 1 m/s 736 mmHg 43%
    02:00 +18°C° 0 mm 1 m/s 736 mmHg 44%
    03:00 +16°C° 0 mm 1 m/s 736 mmHg 46%
    04:00 +16°C° 0 mm 1 m/s 736 mmHg 47%
    05:00 +15°C° 0 mm 1 m/s 736 mmHg 49%
    06:00 +16°C° 0 mm 1 m/s 736 mmHg 48%
    07:00 +16°C° 0 mm 1 m/s 737 mmHg 48%
    08:00 +18°C° 0 mm 1 m/s 737 mmHg 47%
    09:00 +19°C° 0 mm 2 m/s 737 mmHg 41%
    10:00 +23°C° 0 mm 2 m/s 737 mmHg 35%
    11:00 +25°C° 0 mm 3 m/s 737 mmHg 29%
    12:00 +25°C° 0 mm 3 m/s 737 mmHg 27%
    13:00 +26°C° 0 mm 3 m/s 736 mmHg 26%
    14:00 +27°C° 0 mm 4 m/s 736 mmHg 25%
    15:00 +25°C° 0 mm 3 m/s 736 mmHg 29%
    16:00 +23°C° 0 mm 2 m/s 736 mmHg 34%
    17:00 +21°C° 0 mm 1 m/s 736 mmHg 38%
    18:00 +20°C° 0 mm 2 m/s 736 mmHg 39%
    19:00 +19°C° 0 mm 2 m/s 736 mmHg 39%
    20:00 +18°C° 0 mm 2 m/s 736 mmHg 40%
    21:00 +18°C° 0 mm 3 m/s 736 mmHg 40%
    22:00 +18°C° 0 mm 3 m/s 736 mmHg 40%
    23:00 +17°C° 0 mm 3 m/s 736 mmHg 41%

    3 Iunie, Sâmbătă

    Timp Temperatura Precipitaţii Vânt Presiune Umiditate
    00:00 +17°C° 0 mm 3 m/s 736 mmHg 41%
    01:00 +17°C° 0 mm 3 m/s 736 mmHg 41%
    02:00 +16°C° 0 mm 3 m/s 736 mmHg 41%
    03:00 +17°C° 0 mm 4 m/s 736 mmHg 40%
    04:00 +17°C° 0 mm 4 m/s 736 mmHg 39%
    05:00 +17°C° 0 mm 4 m/s 736 mmHg 38%
    06:00 +17°C° 0 mm 4 m/s 736 mmHg 37%
    07:00 +17°C° 0 mm 4 m/s 736 mmHg 36%
    08:00 +18°C° 0 mm 4 m/s 737 mmHg 35%
    09:00 +19°C° 0 mm 4 m/s 737 mmHg 33%
    10:00 +20°C° 0 mm 4 m/s 737 mmHg 31%
    11:00 +21°C° 0 mm 5 m/s 737 mmHg 28%
    12:00 +22°C° 0 mm 5 m/s 736 mmHg 29%
    13:00 +22°C° 0 mm 5 m/s 736 mmHg 30%
    14:00 +22°C° 0 mm 4 m/s 736 mmHg 30%
    15:00 +21°C° 0 mm 4 m/s 736 mmHg 37%
    16:00 +20°C° 0 mm 3 m/s 736 mmHg 43%
    17:00 +19°C° 0 mm 3 m/s 736 mmHg 49%
    18:00 +18°C° 0,1 mm 3 m/s 737 mmHg 58%
    19:00 +17°C° 0,1 mm 4 m/s 737 mmHg 66%
    20:00 +15°C° 0,1 mm 4 m/s 738 mmHg 74%
    21:00 +15°C° 0 mm 5 m/s 738 mmHg 78%
    22:00 +14°C° 0 mm 6 m/s 739 mmHg 81%
    23:00 +12°C° 0 mm 8 m/s 739 mmHg 85%
    Arată mai mult